Vertical_Velocity
-0 -2 1 -0 -1 0 -1 -0 0 -2 2 -2 -1 -0 -1 0 0 -1 0 -1 -2 -2 -1 -3 -2 -2 -1 0 -1 -3 -5 -3 -3 -1 3 -3 -3 -3 -3 -2 -2 -3 -4 -2 -1
-1 0 -1 -0 0 1 -0 -1 -1 1 -0 -1 -0 0 1 1 0 -1 -1 -2 -2 -3 -1 0 -2 -3 -4 -2 -5 -1 -3 -2 -4 -5 -2 -3 -6 -5 -2 -0 1 1 -0 -0 1
-1 -0 1 -2 1 -1 -0 -0 -0 -0 -1 0 0 0 0 0 -0 -1 -2 -1 -1 -2 1 -1 -1 -4 -5 -2 -2 -1 -0 -3 -4 -3 -4 -5 -1 -2 -1 -1 -0 -1 -1 -2 -2
-1 -0 -0 -2 -0 -1 0 1 -0 0 -1 0 1 -0 0 -2 -2 -1 -2 -1 -2 0 -1 -1 -0 -1 -1 1 0 -0 -0 -2 -3 -2 -1 0 0 -3 1 4 2 -0 -2 -2 1
-1 -0 -0 -0 -0 -1 1 0 -1 1 0 0 -0 -0 -2 0 -1 -2 -1 -2 -1 -1 -1 -1 -1 -3 -4 -2 -0 -2 -1 -2 -1 1 3 1 0 5 2 -0 -4 -3 -2 -0 -2
-1 0 -1 -0 -0 -1 1 -0 -0 0 0 0 -1 -1 -0 -0 -0 -1 -1 -2 -0 -0 0 0 -1 -1 -0 -2 -2 -0 -1 1 -0 0 0 3 1 3 2 -2 -3 -1 -2 -1 0
0 -0 -0 -1 1 -0 -1 0 -1 0 -0 -1 -1 -1 -0 -1 -0 -1 -2 -1 -0 1 1 -1 -1 -1 -0 -1 1 -1 -2 -2 -1 -0 -1 3 -4 -4 -1 -3 -2 -1 -1 3 1
0 -0 -0 -1 1 0 -0 1 1 1 -1 -3 -0 -0 -1 -1 -1 -1 -1 -1 -1 -0 0 -0 -0 0 1 -1 -1 -1 0 0 3 2 -5 0 2 -4 -0 1 1 -2 -2 -0 1
-0 0 -1 0 0 -0 -1 1 0 -0 -1 -1 -0 -1 -0 -1 -1 -1 -1 -1 -0 0 0 -1 -0 -1 -0 -1 -0 -3 -7 -1 -5 -4 0 -1 3 -1 -0 -1 -2 -1 2 -1 -1
-0 -1 -1 1 -1 -0 0 -1 -0 -2 -0 -2 -0 -0 -1 -2 -2 -1 -0 -2 -1 -0 -1 -1 -0 -1 -0 -1 -5 -7 -4 -1 -0 2 0 -5 3 1 -1 1 1 -1 -2 -2 -3
-0 -1 -1 -1 0 -0 0 0 -0 -3 -2 -1 -0 -0 -1 -2 -2 -1 -1 -1 -1 -1 -0 -0 -1 -3 -3 -2 -3 -1 -0 -1 0 -5 -0 -4 -2 1 -3 -0 -1 -2 -5 -5 -4
-0 -0 0 0 -1 -0 0 -1 0 -3 -0 -1 0 -0 -2 -2 -1 -2 -2 -2 -1 -1 -0 -3 -2 -1 -1 -2 -2 -2 -3 1 -0 2 1 -1 -2 3 0 -0 -2 -7 -7 -4 -1
-0 0 -0 -0 -1 0 -0 1 0 -1 -1 -1 -1 -1 -1 -2 -1 -1 -2 -2 -1 -1 -1 1 -0 0 0 -1 -1 1 -1 -2 -3 -1 -3 -1 8 6 1 1 -5 2 4 1 1
0 -0 0 -1 -2 -0 -1 1 0 -0 -2 -0 -1 -1 -2 -1 -1 -0 -1 -1 -2 -1 -2 -2 -1 -2 -2 -2 -1 -0 -1 -1 -2 -6 -4 -2 -16 0 -5 -4 4 1 -2 -3 -5
0 1 0 -2 1 0 -1 0 -0 0 0 -0 -1 -1 -1 -0 -0 -1 -1 -1 -2 -2 -2 -1 -1 -2 -1 -1 -1 -1 -1 -3 -4 -0 -2 2 -8 1 -7 -4 -4 -5 -7 -8 -8
-0 1 2 -1 0 -0 -0 -0 0 -1 -1 -1 -1 -1 -1 -0 0 0 -1 -2 -1 -1 -1 -2 -1 -0 -1 -2 -0 -0 -0 5 1 -3 -0 -7 -7 4 -3 -10 -7 -9 -7 -6 -4
-0 2 2 -0 -0 -0 -1 -1 -1 -1 -1 -1 -0 -0 -1 -1 0 -0 -1 -2 -2 1 2 -2 -1 -1 -2 1 -1 0 -2 -5 -5 -10 -9 -4 -5 5 -6 -5 -9 -5 0 -1 4
-0 1 1 -1 0 -0 -0 -1 -3 -0 -1 -1 -1 -1 -1 -1 -0 -1 -1 -1 0 -1 -3 -2 2 -1 -1 -1 -2 -2 -3 -5 -8 -9 -1 -4 -3 0 -2 0 5 0 4 -2 -1
1 2 -1 0 -1 -0 0 -2 -1 -1 -0 -0 -1 -0 -1 -1 -1 -1 -1 -1 -0 -1 -2 -2 -1 -1 -2 -2 -1 -0 -1 -2 0 8 -6 -9 -14 4 -2 8 2 -0 -1 -4 -5
0 2 -1 -0 -0 0 -1 -1 -2 -1 0 -0 -1 -0 1 -2 -2 -2 -2 -2 -1 -1 -1 -1 1 0 -2 -2 -3 -2 -3 -2 -6 -12 -4 9 -1 -1 -0 1 -5 -6 -1 -1 1
1 2 1 0 1 0 -1 0 -1 -0 0 -1 -0 0 1 -0 -3 -2 -2 -2 -2 -2 -1 -0 -1 -1 -2 -1 -1 -0 0 0 2 3 -7 -17 5 -0 -4 -4 -1 -1 2 -2 0
0 2 1 1 -0 -1 -1 1 0 0 1 0 -0 0 -1 -1 -2 -2 -2 -2 -2 -1 -1 -0 -3 -2 -3 1 -0 -3 -4 -1 -3 -8 -7 -5 7 -5 -1 4 4 -0 0 -7 -5
1 1 0 -1 1 -0 -1 -1 0 0 2 -0 0 -1 -1 -2 -2 -2 -2 -2 -1 -1 -1 -1 -1 -2 -1 -0 -1 -1 3 -1 -1 -1 4 0 -18 -5 -6 -10 -3 -9 -5 -1 2
-1 0 1 0 0 0 -0 1 -0 2 0 0 -1 -2 -1 -2 -1 -2 -2 -1 -1 -2 -2 -1 -2 -2 -3 -3 -1 -4 1 4 -2 -3 4 -2 -2 -14 -12 -16 -6 5 3 1 -3
-1 1 -0 1 1 0 -1 1 1 1 1 0 -1 -0 -1 -2 -1 -3 -2 -2 -2 -1 -2 -2 -1 3 -3 -2 -2 -1 0 -5 1 3 1 11 10 11 11 6 5 2 -2 -1 1
-0 -1 0 -1 1 -0 -0 1 2 1 -0 0 -1 -1 -1 -1 -1 -2 -2 -2 -2 -3 -1 -2 -0 2 1 1 1 -1 -1 1 0 -2 2 -2 1 1 3 -3 -1 2 -1 -1 1
-0 2 -1 1 0 0 0 -1 1 1 0 -0 -1 -2 -0 -1 -2 -2 -3 -3 -4 -2 -0 -2 -2 -2 2 1 2 3 2 4 3 2 1 -4 4 -1 -2 2 0 1 -1 1 1
Height
5855 5857 5858 5859 5861 5862 5864 5865 5866 5867 5868 5869 5869 5868 5868 5868 5869 5868 5869 5870 5870 5870 5870 5869 5869 5869 5869 5869 5868 5868 5868 5868 5869 5869 5869 5869 5868 5868 5867 5866 5865 5863 5861 5859 5856
5857 5859 5860 5862 5863 5864 5866 5867 5869 5869 5870 5870 5869 5869 5870 5870 5871 5871 5872 5872 5871 5871 5871 5872 5871 5872 5871 5870 5870 5871 5870 5870 5870 5870 5869 5869 5869 5868 5867 5865 5863 5861 5858 5855 5852
5859 5861 5863 5865 5865 5866 5868 5870 5871 5871 5871 5871 5871 5871 5872 5873 5873 5873 5874 5874 5873 5873 5873 5873 5873 5873 5873 5873 5873 5872 5873 5873 5872 5871 5870 5870 5869 5867 5866 5864 5862 5860 5857 5853 5850
5860 5863 5865 5867 5867 5869 5871 5871 5872 5872 5872 5872 5872 5873 5874 5875 5877 5876 5876 5875 5875 5875 5875 5874 5874 5874 5874 5874 5874 5874 5875 5874 5873 5872 5871 5869 5867 5866 5865 5863 5860 5857 5853 5849 5845
5862 5864 5867 5868 5869 5871 5873 5874 5874 5873 5873 5873 5874 5875 5876 5878 5878 5878 5878 5877 5876 5876 5876 5876 5876 5876 5876 5876 5876 5876 5875 5874 5873 5871 5870 5868 5867 5865 5863 5860 5857 5853 5849 5844 5839
5863 5866 5868 5869 5871 5873 5875 5875 5874 5874 5874 5875 5875 5876 5878 5880 5880 5879 5879 5879 5878 5878 5878 5878 5877 5877 5877 5877 5878 5877 5876 5874 5873 5871 5869 5868 5865 5863 5860 5857 5853 5850 5845 5840 5835
5865 5867 5869 5871 5873 5874 5876 5875 5875 5875 5876 5876 5877 5878 5881 5882 5881 5881 5881 5880 5880 5879 5879 5879 5878 5878 5878 5878 5877 5876 5875 5874 5872 5871 5869 5868 5865 5860 5857 5854 5849 5845 5841 5835 5828
5866 5868 5870 5872 5874 5876 5876 5876 5877 5877 5878 5878 5879 5881 5882 5883 5883 5883 5882 5882 5881 5881 5880 5880 5879 5879 5879 5878 5877 5875 5874 5872 5871 5870 5866 5865 5863 5857 5854 5849 5844 5839 5834 5826 5819
5866 5868 5870 5873 5875 5876 5877 5878 5878 5879 5879 5880 5882 5882 5884 5884 5884 5884 5884 5883 5882 5882 5881 5880 5880 5878 5878 5877 5876 5873 5872 5871 5869 5866 5865 5862 5859 5854 5850 5844 5838 5832 5826 5819 5809
5867 5869 5871 5874 5876 5877 5878 5879 5880 5881 5881 5882 5883 5885 5885 5885 5884 5884 5884 5884 5883 5882 5881 5880 5879 5878 5877 5875 5873 5871 5870 5868 5867 5865 5862 5857 5854 5849 5844 5838 5832 5826 5819 5811 5802
5867 5869 5872 5875 5877 5878 5879 5881 5884 5884 5883 5884 5884 5885 5885 5885 5885 5885 5884 5883 5883 5882 5881 5879 5879 5877 5875 5873 5872 5870 5869 5867 5864 5859 5857 5853 5851 5847 5840 5834 5827 5820 5811 5802 5791
5867 5870 5873 5875 5878 5879 5881 5882 5884 5886 5885 5885 5885 5885 5885 5886 5886 5885 5885 5885 5883 5882 5880 5879 5877 5875 5874 5873 5871 5869 5866 5864 5862 5859 5855 5851 5847 5843 5835 5829 5820 5812 5802 5790 5779
5867 5870 5873 5875 5879 5881 5881 5883 5885 5885 5887 5886 5886 5886 5886 5887 5886 5886 5885 5884 5882 5881 5879 5878 5876 5874 5872 5870 5868 5866 5862 5860 5857 5854 5852 5845 5842 5838 5829 5821 5814 5802 5793 5781 5769
5868 5870 5873 5876 5881 5881 5882 5883 5885 5886 5887 5888 5887 5887 5887 5887 5887 5885 5884 5884 5881 5880 5878 5876 5873 5871 5869 5867 5865 5863 5860 5858 5854 5850 5846 5841 5836 5832 5822 5813 5803 5795 5785 5770 5755
5868 5870 5873 5877 5880 5882 5883 5884 5885 5887 5889 5890 5888 5888 5887 5888 5887 5886 5885 5883 5881 5879 5878 5876 5872 5870 5867 5865 5863 5861 5858 5853 5850 5845 5841 5835 5824 5821 5814 5806 5798 5785 5772 5758 5746
5868 5871 5874 5878 5880 5882 5883 5884 5886 5888 5888 5889 5889 5889 5889 5887 5886 5885 5884 5883 5881 5878 5876 5873 5870 5868 5866 5863 5860 5857 5854 5852 5847 5839 5833 5826 5823 5819 5810 5798 5785 5775 5763 5750 5737
5868 5871 5875 5878 5880 5882 5883 5885 5887 5887 5889 5890 5889 5889 5889 5888 5887 5885 5883 5882 5880 5878 5876 5872 5869 5866 5864 5862 5858 5854 5850 5845 5841 5834 5830 5824 5818 5810 5798 5791 5780 5767 5757 5742 5727
5869 5872 5875 5878 5880 5882 5883 5886 5887 5888 5888 5889 5889 5889 5889 5888 5887 5884 5883 5880 5877 5875 5872 5870 5868 5865 5862 5859 5856 5851 5847 5842 5837 5832 5829 5820 5810 5806 5797 5787 5775 5763 5748 5732 5716
5869 5873 5876 5878 5881 5882 5884 5886 5887 5888 5889 5889 5889 5889 5889 5888 5886 5884 5881 5879 5876 5874 5871 5868 5866 5863 5860 5857 5854 5849 5845 5840 5834 5830 5820 5815 5808 5799 5790 5780 5769 5755 5740 5722 5707
5869 5873 5876 5879 5881 5883 5885 5886 5887 5887 5889 5889 5890 5890 5889 5888 5886 5882 5880 5878 5875 5872 5869 5867 5865 5862 5859 5855 5851 5847 5842 5836 5831 5823 5816 5810 5802 5793 5783 5772 5760 5746 5730 5715 5699
5869 5873 5876 5878 5881 5883 5884 5886 5887 5888 5889 5890 5890 5890 5889 5887 5885 5882 5880 5878 5874 5872 5868 5865 5864 5861 5857 5853 5849 5844 5838 5832 5827 5822 5812 5801 5798 5786 5775 5765 5752 5737 5723 5706 5690
5868 5872 5875 5878 5882 5883 5884 5885 5887 5888 5889 5890 5890 5890 5889 5887 5885 5882 5880 5877 5874 5870 5867 5864 5861 5858 5855 5851 5846 5841 5835 5830 5823 5817 5809 5800 5792 5779 5769 5758 5744 5730 5714 5697 5681
5866 5870 5874 5878 5881 5883 5884 5885 5887 5888 5888 5889 5890 5890 5889 5887 5886 5882 5879 5876 5873 5869 5866 5863 5860 5855 5852 5850 5844 5839 5834 5827 5819 5812 5807 5794 5785 5773 5761 5749 5735 5720 5704 5689 5674
5865 5869 5873 5876 5879 5882 5883 5884 5887 5887 5888 5889 5890 5890 5889 5888 5886 5883 5879 5876 5872 5869 5865 5862 5857 5853 5849 5844 5839 5833 5828 5824 5816 5807 5799 5790 5779 5765 5753 5741 5725 5712 5698 5683 5668
5863 5867 5870 5875 5877 5880 5882 5884 5886 5887 5888 5888 5889 5889 5889 5887 5886 5883 5879 5875 5872 5868 5865 5861 5857 5853 5847 5842 5837 5831 5826 5819 5812 5804 5795 5787 5775 5763 5751 5738 5722 5708 5693 5677 5661
5860 5864 5868 5871 5874 5878 5880 5883 5885 5886 5887 5888 5889 5888 5888 5887 5885 5882 5879 5876 5872 5867 5862 5858 5856 5851 5847 5841 5836 5829 5822 5815 5808 5799 5790 5780 5770 5758 5745 5732 5717 5703 5688 5672 5657
5857 5860 5864 5868 5872 5875 5878 5880 5883 5885 5886 5887 5887 5887 5887 5885 5883 5881 5878 5874 5870 5866 5860 5857 5852 5848 5843 5838 5832 5826 5817 5810 5803 5794 5785 5774 5764 5752 5739 5727 5712 5698 5683 5668 5652